Location: Lecco
(45.8566°N, 9.3977°E)
Time: 10:27:17
(UTC+02:00)

Vanguard 1 Rocket - Visible Passes

Search period start: 14 August 2020 00:00
Search period end: 24 August 2020 00:00
Orbit: 655 x 4222 km, 34.3° (Epoch: 13 August)

Date Brightness Start Highest point End Pass type
(mag) Time Alt. Az. Time Alt. Az. Time Alt. Az.
14 Aug 9.8 05:46:35 10° SSW 05:54:32 22° SSE 05:59:51 10° ESE visible
15 Aug 10.2 04:35:09 10° SSW 04:43:02 18° SSE 04:48:46 10° ESE visible
16 Aug 10.6 03:27:52 13° SSE 03:31:10 14° SSE 03:36:28 10° SE visible
16 Aug 9.6 05:47:56 10° SW 05:57:33 27° S 06:03:30 10° ESE visible
17 Aug 10.0 04:37:48 14° SSW 04:46:01 24° SSE 04:52:49 10° ESE visible
18 Aug 10.4 03:30:25 18° S 03:34:05 20° SSE 03:41:26 10° ESE visible
18 Aug 9.4 05:49:36 10° SW 06:00:33 33° S 06:06:57 10° ESE visible
19 Aug 10.8 02:23:01 15° SE 02:23:01 15° SE 02:28:33 10° ESE visible
19 Aug 9.8 04:40:17 17° SSW 04:48:58 30° SSE 04:56:29 10° ESE visible
20 Aug 10.2 03:32:50 23° S 03:36:59 26° SSE 03:45:30 10° ESE visible
20 Aug 9.3 05:51:29 10° WSW 06:03:30 38° S 06:10:16 10° ESE visible
21 Aug 10.6 02:25:21 21° SSE 02:25:21 21° SSE 02:33:36 10° ESE visible
21 Aug 9.7 04:42:36 19° SW 04:51:53 36° SSE 04:59:55 10° ESE visible
22 Aug 11.0 01:17:50 12° ESE 01:17:50 12° ESE 01:19:47 10° ESE visible
22 Aug 10.1 03:35:06 28° S 03:39:49 32° SSE 03:49:09 10° ESE visible
22 Aug 9.2 05:53:31 10° WSW 06:06:25 41° S 06:13:29 10° ESE visible
23 Aug 10.4 02:27:32 27° SSE 02:27:32 27° SSE 02:37:43 10° ESE visible
23 Aug 9.6 04:44:47 21° SW 04:54:46 41° S 05:03:13 10° ESE visible
